www.pogodaiklimat.ru

Погода и климат >> Архив погоды >> Мексика >> Тампико


ПОГОДА в Тампико

  • Прогноз погоды в Тампико
  • Монитор погоды в Тампико

АРХИВ ПОГОДЫ в Тампико

Время (UTC), дата Ветер
(напр.,м/с)
 
Видим.   Явления Облачность Т
(С)
Тd
(С)
f
(%)
Тe
(С)
Тes
(С)
Комфортность P
(гПа)
Po
(гПа)
Тmin
(С)
Tmax
(С)
R
(мм)
R24
(мм)
S
(см)
12 18.05 В 1 12 км 9/9 400 м
[Sc diur, vesp]
+27.4 +25.5 89 +40 +40 очень
душно
1009.0 1008.0 +26.8 +37.6
15 18.05 ЮВ 1 15 км мгла {туман} 6/6 400 м
[Cu med, cong]
+30.8 +27.4 82 +49 +54 опасность
перегрева
1008.7 1007.7
18 18.05 ЮВ 2 18 км мгла {туман} 6/6 400 м
[Cu med, cong]
+35.8 +28.6 67 +58 +67 опасность
перегрева
1007.8 1006.8 +26.8 +36.5
21 18.05 В 2 18 км мгла {туман} ясно +36.2 +27.7 62 +56 +71 опасность
перегрева
1004.3 1003.3
00 19.05 ЮВ 3 18 км мгла {туман} ясно +33.8 +27.3 69 +53 +54 опасность
перегрева
1002.6 1001.6 +26.8 +38.0
03 19.05 В 4 10 км {туман} 1/1 400 м
[Cu hum]
+28.0 +24.5 81 +39 +39 очень
душно
1004.8 1003.8
06 19.05 В 4 10 км 3/3 400 м
[Cu hum]
+27.2 +24.8 87 +39 +39 очень
душно
1006.5 1005.5 +38.0
09 19.05 В 2 10 км 3/3 400 м
[Cu hum]
+27.2 +24.8 87 +39 +39 очень
душно
1006.5 1005.5
12 19.05 В 1 10 км 6/6 400 м
[Sc diur, vesp]
+27.4 +24.7 85 +39 +39 очень
душно
1007.7 1006.7 +26.6 +38.0
15 19.05 В 1 18 км мгла {туман} 9/9 400 м
[Sc diur, vesp]
+29.2 +25.5 80 +43 +44 опасность
перегрева
1009.7 1008.7
18 19.05 В 2 22 км {туман} 5/5 400 м
[Cu med, cong]
+34.8 +25.8 60 +50 +61 опасность
перегрева
1009.1 1008.1 +26.6 +36.0
21 19.05 В 5 22 км 3/3 480 м
[Cu hum]
+34.0 +25.2 60 +48 +54 опасность
перегрева
1007.4 1006.4
00 20.05 В 5 20 км 8/8 400 м
[Sc diur, vesp]
+30.2 +24.8 73 +43 +43 опасность
перегрева
1006.3 1005.3 +26.6 +36.6
03 20.05 В 3 10 км 9/9 400 м
[Sc diur, vesp]
+28.2 +25.3 84 +41 +41 опасность
перегрева
1009.0 1008.0
06 20.05 ЮВ 1 10 км 5/5 400 м
[Cu med, cong]
+27.8 +24.5 82 +39 +39 очень
душно
1010.5 1009.5 +36.6
09 20.05 ЮВ 1 10 км 4/4 400 м
[Cu med, cong]
+27.4 +24.7 85 +39 +39 очень
душно
1010.9 1009.9
12 20.05 В 1 10 км 5/5 400 м
[Sc diur, vesp]
+27.0 +24.3 85 +38 +38 очень
душно
1011.2 1010.2 +26.6 +36.6
15 20.05 В 2 18 км мгла {туман} 6/6 400 м
[Cu med, cong]
+31.0 +26.9 79 +48 +52 опасность
перегрева
1011.3 1010.3
18 20.05 ЮВ 2 18 км мгла {туман} 8/8 480 м
[Cu med, cong]
+34.2 +25.4 60 +48 +53 опасность
перегрева
1010.5 1009.5 +26.6 +35.2
21 20.05 ЮВ 3 20 км 1/1 480 м
[Cu hum]
+36.4 +27.3 60 +55 +67 опасность
перегрева
1007.9 1006.9
00 21.05 ЮВ 4 16 км мгла 4/4 400 м
[Cu hum]
+32.0 +25.6 69 +47 +47 опасность
перегрева
1006.3 1005.3 +26.6 +37.2
03 21.05 В 5 10 км 8/8 400 м
[Cu med, cong]
+28.0 +25.0 84 +40 +40 очень
душно
1007.7 1006.7
06 21.05 В 5 10 км {туман} 5/5 400 м
[Cu med, cong]
+27.6 +24.9 85 +39 +39 очень
душно
1008.5 1007.5 +37.2
09 21.05 В 3 10 км 3/3 400 м
[Cu med, cong]
+27.2 +24.2 84 +38 +38 очень
душно
1007.4 1006.4
12 21.05 В 2 10 км 8/8 400 м
[Sc diur, vesp]
+26.2 +23.7 86 +36 +36 очень
душно
1006.1 1005.1 +25.8 +37.2
15 21.05 ЮВ 1 20 км 9/9 400 м
[Sc diur, vesp]
+29.4 +25.4 79 +43 +44 опасность
перегрева
1006.9 1005.9
18 21.05 В 2 20 км 5/5 400 м
[Cu med, cong]
+35.2 +27.7 65 +55 +66 опасность
перегрева
1005.4 1004.4 +25.8 +36.5
21 21.05 В 5 18 км мгла ясно +35.6 +27.3 62 +54 +62 опасность
перегрева
1003.0 1002.0
00 22.05 ЮВ 4 18 км мгла {туман} 5/5 400 м
[Cu hum]
+31.4 +26.1 74 +47 +48 опасность
перегрева
1002.2 1001.2 +25.8 +37.8
03 22.05 ЮВ 6 10 км {туман} 8/8 400 м
[Sc diur, vesp]
+28.4 +24.9 81 +41 +41 опасность
перегрева
1006.0 1005.0
06 22.05 ЮВ 2 10 км {туман} 8/8 400 м
[Sc diur, vesp]
+28.0 +25.3 85 +41 +41 опасность
перегрева
1007.7 1006.7 +37.8
09 22.05 ЮВ 1 10 км 5/5 400 м
[Sc diur, vesp]
+27.0 +24.0 84 +37 +37 очень
душно
1007.5 1006.5
12 22.05 ЮВ 1 10 км 8/8 400 м
[Sc diur, vesp]
+26.6 +24.1 86 +37 +37 очень
душно
1006.7 1005.7 +26.2 +37.8
15 22.05 ЮВ 1 20 км 8/8 400 м
[Sc diur, vesp]
+30.2 +26.4 80 +46 +48 опасность
перегрева
1008.0 1007.0
18 22.05 ЮВ 2 22 км 8/8 480 м
[Cu med, cong]
+33.4 +27.4 71 +53 +57 опасность
перегрева
1008.2 1007.2 +26.2 +34.5
21 22.05 ЮВ 5 20 км 6/6 480 м
[Cu med, cong]
+35.8 +27.0 61 +54 +57 опасность
перегрева
1006.6 1005.6
00 23.05 В 7 18 км мгла {туман} 4/4 540 м
[Cu med, cong]
+31.4 +25.0 69 +45 +45 опасность
перегрева
1007.0 1006.0 +26.2 +37.0
03 23.05 В 5 10 км 3/3 400 м
[Cu hum]
+28.2 +23.9 78 +39 +39 очень
душно
1010.1 1009.1
06 23.05 В 6 10 км {туман} 5/5 400 м
[Cu med, cong]
+28.0 +24.5 81 +39 +39 очень
душно
1012.0 1011.0 +37.0
09 23.05 ЮВ 4 10 км 5/5 400 м
[Cu med, cong]
+27.2 +24.2 84 +38 +38 очень
душно
1011.0 1010.0
12 23.05 ЮВ 2 12 км 8/8 400 м
[Cu med, cong]
+27.4 +24.4 84 +39 +39 очень
душно
1012.4 1011.4 +27.0 +37.0
15 23.05 ЮВ 2 20 км 5/5 400 м
[Cu med, cong]
+31.0 +26.5 77 +47 +52 опасность
перегрева
1013.4 1012.4
18 23.05 В 3 18 км мгла 4/4 540 м
[Cu med, cong]
+34.6 +27.6 67 +54 +65 опасность
перегрева
1013.0 1012.0 +27.0 +35.8
21 23.05 В 5 18 км мгла {туман} 6/6 450 м
[Cu med, cong]
+34.8 +28.6 70 +57 +60 опасность
перегрева
1011.2 1010.2
00 24.05 В 6 18 км мгла {туман} 4/4 450 м
[Cu med, cong]
+30.2 +24.8 73 +43 +43 опасность
перегрева
1010.8 1009.8 +27.0 +36.5
03 24.05 В 5 10 км 8/8 400 м
[Cu med, cong]
+28.6 +25.4 83 +42 +42 опасность
перегрева
1013.8 1012.8
06 24.05 В 6 10 км 6/6 400 м
[Cu med, cong]
+28.4 +25.7 85 +42 +42 опасность
перегрева
1015.0 1014.0 +36.5
09 24.05 В 4 10 км 6/6 400 м
[Cu med, cong]
+27.8 +25.4 87 +41 +41 опасность
перегрева
1013.3 1012.3
12 24.05 В 2 12 км {морось} 8/8 400 м
[Sc diur, vesp]
+26.8 +24.1 85 +37 +37 очень
душно
1013.9 1012.9 +26.2 +36.5 0.8
15 24.05 В 1 22 км {морось} 8/8 400 м
[Sc diur, vesp]
+31.2 +28.1 84 +52 +54 опасность
перегрева
1014.8 1013.8 0.2
18 24.05 ЮВ 2 22 км {морось} 6/6 480 м
[Cu med, cong]
+35.0 +27.8 66 +55 +64 опасность
перегрева
1014.4 1013.4 +25.2 +36.6 0.3
21 24.05 В 3 22 км 5/5 480 м
[Cu med, cong]
+34.6 +27.6 67 +54 +60 опасность
перегрева
1013.2 1012.2
00 25.05 В 4 18 км мгла {туман} 3/3 400 м
[Cu hum]
+31.2 +25.6 72 +46 +46 опасность
перегрева
1012.1 1011.1 +25.2 +37.0
03 25.05 В 7 10 км 3/3 400 м
[Cu hum]
+28.2 +24.7 81 +40 +40 очень
душно
1014.2 1013.2
06 25.05 В 6 10 км 5/5 400 м
[Cu med, cong]
+27.6 +24.3 82 +39 +39 очень
душно
1016.0 1015.0 +37.0

 

Местоположение метеостанции Тампико (Мексика): широта 22.20 долгота -97.85 высота над уровнем моря 25 м.

В архиве по умолчанию представлена погода в Тампико за последнюю неделю. Архивные данные за месяц целиком и за предыдущие месяцы, начиная с января 2011 года, Вы можете получить, выбрав интересующий диапазон дат из раскрывающегося списка и нажав кнопку "Ввод!".


*Определитесь, кто Вы:
робот инопланетянин человек

Внимание! Время в таблицах - всемирное. Для получения местного времени необходимо прибавить поправку, которая равна -6 ч.

Смотрите также архив погоды в соседних городах и на ближайших метеорологических станциях:

Погода в Тамуине (Мексика) (96 км)
Погода в Маталапе (Мексика) (139 км)
Погода в Туспане (Мексика) (147 км)
Погода в Сото ла Марина (Мексика) (178 км)
Погода в Сьюдад-Виктории (Мексика) (215 км)
Погода в Рио-Верде (Мексика) (222 км)
Погода в Тулансинго (Мексика) (242 км)
Погода в Пачуке (Мексика) (248 км)
Погода в Халапе (Мексика) (311 км)
Погода в Сан-Луис-Потоси (Мексика) (314 км)

Пояснения к столбцам:

Ветер - указаны скорость ветра в м/с - средняя за 10 мин, порывы в срок и между сроками (в фигурных скобках) и направление, откуда дует ветер: С - северный, СВ - северо-восточный, В - восточный, ЮВ - юго-восточный, Ю - южный, ЮЗ - юго-западный, З - западный, СЗ - северо-западный.
Видимость - горизонтальная дальность видимости в метрах или километрах. При видимости от 1 до 10 км при отсутствии осадков обычно наблюдается дымка, при ухудшении видимости до 1 км и менее - туман. В сухую погоду видимость может ухудшаться дымом, пылью или мглою.
Явления - указаны атмосферные явления, наблюдавшиеся в срок или в последний час перед сроком; фигурными скобками обозначены явления, наблюдавшиеся между сроками (за 1-3 часа до срока); квадратными скобками обозначены град или гололедные отложения с указанием их диаметра в мм.
Облачность - указаны через наклонную черту общая и нижняя облачность в баллах и высота нижней границы облаков в метрах; квадратными скобками обозначены формы облаков: Ci - перистые, Cs - перисто-слоистые, Cc - перисто-кучевые, Ac - высококучевые, As - высокослоистые, Sc - слоисто-кучевые, Ns - слоисто-дождевые, Cu - кучевые, Cb - кучево-дождевые. Подробнее классификацию облаков см. в Атласе облаков (PDF).
T - Температура воздуха - температура, измеренная на высоте 2 м над землей.
Td - Температура точки росы - температура, при понижении до которой содержащийся в воздухе водяной пар достигнет насыщения.
f - Относительная влажность воздуха - влажноcть воздуха, измеренная на высоте 2 м над землей.
Te - Эффективная температура - температура, которую ощущает одетый по сезону человек в тени. Характеристика душности погоды. При расчете учитывается влияние влажности воздуха и скорости ветра на теплоощущения человека.
Tes - Эффективная температура на солнце - температура, которую ощущает человек, с поправкой на солнечный нагрев. Характеристика знойности погоды. Зависит от высоты солнца над горизонтом, облачности и скорости ветра. Ночью, в пасмурную погоду, а также при ветре 12 м/с и более поправка равна нулю.
P - Атмосферное давление - приведенное к уровню моря атмосферное давление.
Po - Атмосферное давление - измеренное на уровне метеостанции атмосферное давление.
Tmin - Минимальная температура - минимум температуры воздуха на высоте 2 м над землей.
Tmax - Максимальная температура - максимум температуры воздуха на высоте 2 м над землей.
R - Количество осадков - Количество выпавших осадков за период времени, мм. При наведении курсора мыши на число - период времени, за который выпало указанное количество осадков.
R24 - Количество осадков - Количество выпавших осадков за 24 часа, мм.
S - Снежный покров - Высота снежного покрова, см. При наведении курсора мыши на число - состояние снежного покрова и степень покрытия местности в баллах.